Date String (YYYY-MM-DD hh:mm:ss) UTC,Instrument flags,absolute air pressure of the measurement (hPa),sample flow rate (lpm),inlet stack bypass flow (lpm),air temperature of the measurement (°C),ambient temperature measured by the external sensor (°C),aerosol sample conditioner tube jacket temperature (°C),OPC LED temperature (°C),internal box temperature (°C),relative humidity of the measurement (%),span deviation,mass concentration of particles derived from Lorenz-Mie calculation of OPC scattering (μg/m³),mass concentration of particles derived from Lorenz-Mie calculation of OPC scattering (μg/m³),mass concentration of particles derived from Lorenz-Mie calculation of OPC scattering (μg/m³)
DateTimeUTC,F1_M11,P_M11,Q1_M11,Q2_M11,T1_M11,T2_M11,T3_M11,T4_M11,T5_M11,U1_M11,ZSPAN_M11,X2_M11,X0_M11,X1_M11
2023-10-17 06:00:00,SystemResetWarning,0833.0,5.00,000.00,028.9,027.4,000.0,037.4,030.5,13.8,0000.0,0003.57,0011.22,0002.86
2023-10-17 06:01:00,SystemResetWarning,0833.0,5.00,000.00,028.9,027.4,000.0,037.4,030.5,13.8,0000.0,0003.56,0011.86,0002.86
2023-10-17 06:02:00,SystemResetWarning,0833.1,5.00,000.00,028.9,027.4,000.0,037.4,030.5,13.8,0000.0,0003.52,0011.46,0002.85
2023-10-17 06:03:00,SystemResetWarning,0833.4,4.99,000.00,028.9,027.4,000.0,037.4,030.5,13.8,0000.0,0003.49,0011.26,0002.82
2023-10-17 06:04:00,SystemResetWarning,0833.1,5.00,000.00,028.9,027.4,000.0,037.4,030.5,13.8,0000.0,0003.46,0010.92,0002.82
2023-10-17 06:05:00,SystemResetWarning,0832.9,5.00,000.00,028.9,027.4,000.0,037.4,030.5,13.8,0000.0,0003.46,0011.13,0002.83
2023-10-17 06:06:00,SystemResetWarning,0833.0,5.00,000.00,028.9,027.4,000.0,037.4,030.5,13.8,0000.0,0003.42,0010.67,0002.83
2023-10-17 06:07:00,SystemResetWarning,0833.0,5.00,000.00,028.9,027.4,000.0,037.4,030.5,13.8,0000.0,0003.41,0009.94,0002.82
2023-10-17 06:08:00,SystemResetWarning,0832.9,4.99,000.00,028.9,027.3,000.0,037.4,030.5,13.8,0000.0,0003.47,0010.47,0002.83
2023-10-17 06:09:00,SystemResetWarning,0832.9,5.00,000.00,028.9,027.3,000.0,037.4,030.5,13.8,0000.0,0003.43,0010.29,0002.81
2023-10-17 06:10:00,SystemResetWarning,0833.1,5.00,000.00,028.9,027.3,000.0,037.4,030.5,13.8,0000.0,0003.41,0009.58,0002.81
2023-10-17 06:11:00,SystemResetWarning,0833.1,5.00,000.00,028.9,027.3,000.0,037.4,030.5,13.8,0000.0,0003.43,0009.98,0002.82
2023-10-17 06:12:00,SystemResetWarning,0833.3,5.00,000.00,028.9,027.4,000.0,037.4,030.5,13.8,0000.0,0003.44,0009.63,0002.81
2023-10-17 06:13:00,SystemResetWarning,0833.2,5.00,000.00,028.9,027.4,000.0,037.4,030.5,13.8,0000.0,0003.48,0010.43,0002.80
2023-10-17 06:14:00,SystemResetWarning,0833.3,5.00,000.00,028.9,027.3,000.0,037.4,030.5,13.8,0000.0,0003.52,0011.81,0002.80
2023-10-17 06:15:00,SystemResetWarning,0832.9,5.00,000.00,028.9,027.3,000.0,037.4,030.5,13.8,0000.0,0003.57,0012.04,0002.82
2023-10-17 06:16:00,SystemResetWarning,0832.9,5.00,000.00,028.9,027.3,000.0,037.4,030.5,13.8,0000.0,0003.59,0011.67,0002.83
2023-10-17 06:17:00,SystemResetWarning,0832.8,5.00,000.00,028.9,027.3,000.0,037.4,030.5,13.8,0000.0,0003.63,0011.70,0002.84
2023-10-17 06:18:00,SystemResetWarning,0832.8,5.00,000.00,028.9,027.3,000.0,037.4,030.5,13.8,0000.0,0003.65,0011.93,0002.85
2023-10-17 06:19:00,SystemResetWarning,0832.8,5.00,000.00,028.9,027.3,000.0,037.4,030.5,13.8,0000.0,0003.60,0011.63,0002.85
2023-10-17 06:20:00,SystemResetWarning,0832.8,5.00,000.00,028.9,027.3,000.0,037.4,030.5,13.8,0000.0,0003.61,0011.55,0002.86
2023-10-17 06:21:00,SystemResetWarning,0832.8,5.00,000.00,028.9,027.3,000.0,037.4,030.5,13.8,0000.0,0003.63,0011.48,0002.88
2023-10-17 06:22:00,SystemResetWarning,0832.8,5.00,000.00,028.9,027.3,000.0,037.4,030.5,13.8,0000.0,0003.61,0011.09,0002.89
2023-10-17 06:23:00,SystemResetWarning,0832.8,5.00,000.00,028.9,027.4,000.0,037.4,030.5,13.8,0000.0,0003.59,0010.74,0002.89
2023-10-17 06:24:00,SystemResetWarning,0832.8,5.00,000.00,028.9,027.4,000.0,037.4,030.5,13.8,0000.0,0003.55,0009.74,0002.90
2023-10-17 06:25:00,SystemResetWarning,0832.7,5.00,000.00,028.9,027.4,000.0,037.4,030.5,13.8,0000.0,0003.53,0008.94,0002.90
2023-10-17 06:26:00,SystemResetWarning,0832.7,5.00,000.00,028.9,027.4,000.0,037.4,030.5,13.8,0000.0,0003.54,0008.69,0002.90
2023-10-17 06:27:00,SystemResetWarning,0832.8,5.00,000.00,028.9,027.4,000.0,037.4,030.5,13.8,0000.0,0003.58,0008.78,0002.91
2023-10-17 06:28:00,SystemResetWarning,0832.7,5.00,000.00,028.9,027.4,000.0,037.4,030.5,13.8,0000.0,0003.59,0008.90,0002.91
2023-10-17 06:29:00,SystemResetWarning,0832.7,5.00,000.00,028.9,027.4,000.0,037.4,030.5,13.8,0000.0,0003.60,0008.72,0002.91
2023-10-17 06:30:00,SystemResetWarning,0832.7,5.00,000.00,028.9,027.4,000.0,037.4,030.5,13.8,0000.0,0003.64,0008.91,0002.91
2023-10-17 06:31:00,SystemResetWarning,0832.7,5.00,000.00,028.9,027.4,000.0,037.4,030.5,13.8,0000.0,0003.68,0009.29,0002.91
2023-10-17 06:32:00,SystemResetWarning,0832.7,5.00,000.00,028.9,027.4,000.0,037.4,030.5,13.8,0000.0,0003.69,0009.37,0002.90
2023-10-17 06:33:00,SystemResetWarning,0832.6,5.00,000.00,028.9,027.4,000.0,037.4,030.5,13.8,0000.0,0003.69,0009.31,0002.90
2023-10-17 06:34:00,SystemResetWarning,0832.7,5.00,000.00,028.9,027.4,000.0,037.4,030.5,13.8,0000.0,0003.72,0009.71,0002.90
2023-10-17 06:35:00,SystemResetWarning,0832.6,5.00,000.00,028.9,027.4,000.0,037.4,030.5,13.8,0000.0,0003.75,0009.63,0002.90
2023-10-17 06:36:00,SystemResetWarning,0832.7,5.01,000.00,028.9,027.4,000.0,037.4,030.5,13.8,0000.0,0003.79,0009.09,0002.91
2023-10-17 06:37:00,SystemResetWarning,0832.6,5.00,000.00,028.9,027.4,000.0,037.4,030.5,13.8,0000.0,0003.76,0009.26,0002.92
2023-10-17 06:38:00,SystemResetWarning,0832.6,5.01,000.00,028.9,027.4,000.0,037.4,030.5,13.8,0000.0,0003.71,0009.54,0002.90
2023-10-17 06:39:00,SystemResetWarning,0832.6,5.00,000.00,028.9,027.4,000.0,037.4,030.5,13.8,0000.0,0003.67,0009.32,0002.89
2023-10-17 06:40:00,SystemResetWarning,0832.6,5.00,000.00,028.9,027.4,000.0,037.4,030.5,13.8,0000.0,0003.67,0010.04,0002.89
2023-10-17 06:41:00,SystemResetWarning,0832.7,5.00,000.00,028.9,027.4,000.0,037.4,030.5,13.8,0000.0,0003.64,0010.08,0002.88
2023-10-17 06:42:00,SystemResetWarning,0832.6,4.99,000.00,028.9,027.4,000.0,037.3,030.5,13.8,0000.0,0003.62,0009.37,0002.87
2023-10-17 06:43:00,SystemResetWarning,0832.6,5.00,000.00,028.9,027.4,000.0,037.4,030.5,13.8,0000.0,0003.58,0009.11,0002.86
2023-10-17 06:44:00,SystemResetWarning,0832.5,5.00,000.00,028.9,027.3,000.0,037.3,030.5,13.8,0000.0,0003.59,0009.14,0002.85
2023-10-17 06:45:00,SystemResetWarning,0832.5,5.01,000.00,028.9,027.3,000.0,037.3,030.5,13.8,0000.0,0003.60,0008.79,0002.84
2023-10-17 06:46:00,SystemResetWarning,0832.5,5.00,000.00,028.9,027.3,000.0,037.3,030.5,13.8,0000.0,0003.58,0009.01,0002.83
2023-10-17 06:47:00,SystemResetWarning,0832.5,5.00,000.00,028.9,027.3,000.0,037.3,030.5,13.8,0000.0,0003.55,0009.28,0002.81
2023-10-17 06:48:00,SystemResetWarning,0832.5,5.00,000.00,028.9,027.3,000.0,037.3,030.5,13.8,0000.0,0003.50,0009.05,0002.79
2023-10-17 06:49:00,SystemResetWarning,0832.5,5.00,000.00,028.9,027.3,000.0,037.3,030.5,13.8,0000.0,0003.50,0008.55,0002.76
2023-10-17 06:50:00,SystemResetWarning,0832.5,5.00,000.00,028.9,027.3,000.0,037.3,030.4,13.7,0000.0,0003.47,0008.93,0002.74
2023-10-17 06:51:00,SystemResetWarning,0832.5,5.00,000.00,028.9,027.3,000.0,037.3,030.4,13.8,0000.0,0003.44,0009.33,0002.72
2023-10-17 06:52:00,SystemResetWarning,0832.5,5.00,000.00,028.9,027.3,000.0,037.3,030.4,13.8,0000.0,0003.45,0009.17,0002.71
2023-10-17 06:53:00,SystemResetWarning,0832.5,5.00,000.00,028.9,027.3,000.0,037.3,030.5,13.8,0000.0,0003.44,0009.31,0002.71
2023-10-17 06:54:00,SystemResetWarning,0832.5,5.00,000.00,028.9,027.3,000.0,037.3,030.5,13.8,0000.0,0003.43,0010.17,0002.70
2023-10-17 06:55:00,SystemResetWarning,0832.5,5.00,000.00,028.9,027.3,000.0,037.3,030.5,13.8,0000.0,0003.43,0010.27,0002.69
2023-10-17 06:56:00,SystemResetWarning,0832.5,5.00,000.00,028.9,027.3,000.0,037.3,030.5,13.8,0000.0,0003.41,0010.46,0002.68
2023-10-17 06:57:00,SystemResetWarning,0832.5,5.00,000.00,028.9,027.3,000.0,037.3,030.5,13.9,0000.0,0003.37,0010.51,0002.68
2023-10-17 06:58:00,SystemResetWarning,0832.4,5.00,000.00,028.9,027.3,000.0,037.3,030.5,13.9,0000.0,0003.35,0010.50,0002.66
2023-10-17 06:59:00,SystemResetWarning,0832.4,5.00,000.00,028.9,027.3,000.0,037.3,030.5,13.9,0000.0,0003.36,0010.60,0002.66
